FW8288 Weather Reports


Display with metric or nautical units.
time (UTC)temp
F
wind
direction
speed
MPH
gust
MPH
rain 1hr
in
rain 24hr
in
rain mn
in
humidity
%
barometer
mb
20260831024618 85 167 0.0 2.0 0.00 0.00 0.00 72 1015.5
20260831023102 85 0 0.0 2.0 0.00 0.00 0.00 70 1015.2
20260831021604 86 167 0.0 3.0 0.00 0.00 0.00 69 1015.0
20260831014602 87 167 1.0 3.0 0.00 0.00 0.00 66 1014.7
20260831013103 88 0 1.0 5.0 0.00 0.00 0.00 64 1014.7
20260831011602 88 167 1.0 4.0 0.00 0.00 0.00 63 1014.6
20260831010132 89 0 0.0 3.0 0.00 0.00 0.00 61 1014.6
20260831004609 90 167 1.0 5.0 0.00 0.00 0.00 59 1014.6
20260831003106 91 167 1.0 5.0 0.00 0.00 0.00 57 1014.5
20260831001610 92 167 2.0 5.0 0.00 0.00 0.00 55 1014.2
20260831000106 92 167 2.0 7.0 0.00 0.00 0.00 54 1014.2
20260830234602 93 167 2.0 6.0 0.00 0.00 0.00 52 1014.2
20260830233102 94 167 2.0 5.0 0.00 0.00 0.00 51 1014.2
20260830231603 95 167 3.0 7.0 0.00 0.00 0.00 49 1014.0
20260830224610 96 166 1.0 6.0 0.00 0.00 0.00 47 1014.0
20260830223104 95 166 1.0 4.0 0.00 0.00 0.00 46 1014.1
20260830221602 97 166 1.0 5.0 0.00 0.00 0.00 44 1014.2
20260830220124 98 166 2.0 6.0 0.00 0.00 0.00 43 1014.1
20260830214606 98 166 2.0 8.0 0.00 0.00 0.00 43 1014.2
20260830213102 99 166 1.0 4.0 0.00 0.00 0.00 41 1014.4
20260830211605 99 166 2.0 7.0 0.00 0.00 0.00 41 1014.7
20260830210104 99 167 1.0 5.0 0.00 0.00 0.00 40 1014.7
20260830204602 98 167 3.0 7.0 0.00 0.00 0.00 42 1014.9
20260830203120 99 167 0.0 10.0 0.00 0.00 0.00 40 1014.9
20260830201602 99 167 1.0 5.0 0.00 0.00 0.00 42 1015.3
20260830200105 98 167 2.0 6.0 0.00 0.00 0.00 39 1015.6
20260830194605 99 167 1.0 4.0 0.00 0.00 0.00 39 1015.7
20260830193105 97 166 2.0 7.0 0.00 0.00 0.00 44 1016.0
20260830191603 98 167 2.0 6.0 0.00 0.00 0.00 45 1016.3
20260830184613 96 166 2.0 6.0 0.00 0.00 0.00 46 1016.6
20260830183123 97 166 2.0 5.0 0.00 0.00 0.00 47 1017.0
20260830181623 96 166 0.0 4.0 0.00 0.00 0.00 49 1017.2
20260830180112 96 166 2.0 4.0 0.00 0.00 0.00 50 1017.6
20260830174606 95 166 0.0 3.0 0.00 0.00 0.00 51 1017.8
20260830173148 93 166 1.0 5.0 0.00 0.00 0.00 56 1017.9
20260830171610 91 0 0.0 1.0 0.00 0.00 0.00 60 1018.0
20260830170104 91 0 2.0 5.0 0.00 0.00 0.00 59 1018.1
20260830164609 91 0 1.0 6.0 0.00 0.00 0.00 60 1018.2
20260830163108 90 166 0.0 2.0 0.00 0.00 0.00 63 1018.3
20260830161635 88 166 0.0 1.0 0.00 0.00 0.00 65 1018.3
20260830160108 88 0 0.0 0.0 0.00 0.00 0.00 68 1018.3
20260830154601 87 0 0.0 4.0 0.00 0.00 0.00 69 1018.3
20260830153104 86 0 0.0 2.0 0.00 0.00 0.00 72 1018.4
20260830151603 86 166 0.0 2.0 0.00 0.00 0.00 76 1018.1
20260830150110 86 0 0.0 2.0 0.00 0.00 0.00 77 1018.2
20260830144607 85 166 0.0 3.0 0.00 0.00 0.00 79 1018.3
20260830143108 84 0 0.0 3.0 0.00 0.00 0.00 81 1018.3
20260830141608 83 166 0.0 2.0 0.00 0.00 0.00 83 1018.1
20260830140111 82 0 0.0 0.0 0.00 0.00 0.00 84 1018.3
20260830134605 82 0 0.0 0.0 0.00 0.00 0.00 86 1018.1
20260830133127 81 0 0.0 1.0 0.00 0.00 0.00 87 1018.0
20260830131617 79 0 0.0 0.0 0.00 0.00 0.00 90 1018.0
20260830130113 78 0 0.0 0.0 0.00 0.00 0.00 92 1017.8
20260830124603 76 0 0.0 0.0 0.00 0.00 0.00 94 1017.8
20260830123105 76 0 0.0 0.0 0.00 0.00 0.00 93 1017.6
20260830121605 75 0 0.0 0.0 0.00 0.00 0.00 93 1017.5
20260830120105 75 0 0.0 0.0 0.00 0.00 0.00 93 1017.4
20260830114605 75 0 0.0 0.0 0.00 0.00 0.00 93 1017.4
20260830113111 76 0 0.0 0.0 0.00 0.00 0.00 93 1017.2
20260830111605 76 0 0.0 0.0 0.00 0.00 0.00 93 1017.2
20260830110138 76 0 0.0 0.0 0.00 0.00 0.00 92 1017.1
20260830104602 76 0 0.0 0.0 0.00 0.00 0.00 92 1017.0
20260830103106 76 0 0.0 0.0 0.00 0.00 0.00 92 1017.0
20260830101605 76 0 0.0 0.0 0.00 0.00 0.00 92 1016.8
20260830094607 77 0 0.0 0.0 0.00 0.00 0.00 91 1016.6
20260830093138 76 0 0.0 0.0 0.00 0.00 0.00 91 1016.6
20260830091620 77 0 0.0 0.0 0.00 0.00 0.00 90 1016.7
20260830090104 77 0 0.0 0.0 0.00 0.00 0.00 90 1016.8
20260830084605 77 0 0.0 0.0 0.00 0.00 0.00 90 1016.8
20260830083103 77 0 0.0 0.0 0.00 0.00 0.00 89 1016.9
20260830081608 78 0 0.0 0.0 0.00 0.00 0.00 89 1016.9
20260830080106 78 0 0.0 0.0 0.00 0.00 0.00 89 1017.0
20260830074658 78 0 0.0 0.0 0.00 0.00 0.00 88 1016.9
20260830073113 78 0 0.0 0.0 0.00 0.00 0.00 88 1017.1
20260830071624 79 0 0.0 0.0 0.00 0.00 0.00 87 1017.1
20260830070106 79 0 0.0 0.0 0.00 0.00 0.00 86 1017.1
20260830064604 79 0 0.0 0.0 0.00 0.00 0.00 86 1017.2
20260830063101 80 0 0.0 2.0 0.00 0.00 0.00 86 1017.1
20260830061604 80 0 0.0 0.0 0.00 0.00 0.00 85 1017.1
20260830060104 80 0 0.0 2.0 0.00 0.00 0.00 84 1017.0
20260830054606 80 0 0.0 2.0 0.00 0.00 0.00 84 1017.0
20260830053104 81 166 0.0 2.0 0.00 0.00 0.00 83 1017.0
20260830051605 81 0 0.0 3.0 0.00 0.00 0.00 82 1017.1
20260830050111 82 0 0.0 3.0 0.00 0.00 0.00 81 1017.1
20260830044601 82 0 0.0 2.0 0.00 0.00 0.00 80 1017.3
20260830043112 82 0 0.0 2.0 0.00 0.00 0.00 80 1017.3
20260830041704 83 166 0.0 6.0 0.00 0.00 0.00 79 1017.3
20260830034607 83 0 1.0 3.0 0.00 0.00 0.00 76 1017.1
20260830033104 84 166 0.0 3.0 0.00 0.00 0.00 75 1017.0
20260830031603 84 166 0.0 3.0 0.00 0.00 0.00 74 1016.9